Regional Weather Roundup
Issued by NWS

Home | Current Version | Previous Version | Text Only | Print | Product List | Glossary On
Versions: 1 2 3 4 5 6 7 8 9 10 11 12 13 14 15 16 17 18 19 20 21 22 23 24 25 26 27 28 29 30 31 32 33 34 35 36 37 38 39 40 41 42 43 44 45 46 47 48 49 50
000
ASUS43 KLMK 252002
RWRKY
KENTUCKY REGIONAL WEATHER ROUNDUP
NATIONAL WEATHER SERVICE LOUISVILLE KY
300 PM EST SUN JAN 25 2015

NOTE "FAIR" INDICATES FEW OR NO CLOUDS BELOW 12,000 FEET
WITH NO SIGNIFICANT WEATHER AND/OR OBSTRUCTIONS TO VISIBILITY.

KYZ001>023-026-027-061>063-070>075-252100-
WESTERN AND SOUTH CENTRAL KENTUCKY

CITY           SKY/WX    TMP DP  RH WIND       PRES   REMARKS
PADUCAH        RAIN      42  40  92 SW13      29.60S FOG
HENDERSON      CLOUDY    43  37  81 S7        29.59S
OWENSBORO      LGT RAIN  43  41  93 S9        29.61F
HOPKINSVILLE   CLOUDY    47  40  74 SW10      29.60F
BOWLING GREEN  LGT RAIN  48  37  65 S7        29.62F
GLASGOW        NOT AVBL
$$

KYZ024-025-028>034-038-045-046-053-252100-
NORTH CENTRAL KENTUCKY

CITY           SKY/WX    TMP DP  RH WIND       PRES   REMARKS
LOUISVILLE/SDF LGT RAIN  44  37  76 E5        29.61F
LOUISVILLE/LOU LGT RAIN  44  36  73 SE3       29.63F
FORT KNOX      CLOUDY    43  37  81 SE3       29.60S
$$

KYZ035>037-039>044-047>052-055>060-089>105-252100-
NORTHEAST KENTUCKY

CITY           SKY/WX    TMP DP  RH WIND       PRES   REMARKS
LEXINGTON      CLOUDY    42  34  73 SE6       29.65F
COVINGTON      LGT RAIN  40  36  86 SE10      29.65F FOG     WCI  33
FRANKFORT      CLOUDY    41  34  76 E7        29.63F
$$

KYZ054-064>069-076>088-106>120-252100-
SOUTHEAST KENTUCKY

CITY           SKY/WX    TMP DP  RH WIND       PRES   REMARKS
JACKSON        CLOUDY    48  31  51 VRB5      29.68F
LONDON         CLOUDY    52  29  41 S8        29.65F
SOMERSET       NOT AVBL
MIDDLESBORO    NOT AVBL
MONTICELLO     CLOUDY    53  33  46 SW12      29.68F
$$



USA.gov is the U.S. government's official web portal to all federal, state and local government web resources and services.